EUTELSAT QUANTUM (49056 NORAD) Tracking and Keplerian Element Data

This shows tracking and keplerian element data for the satellite.

Feedback or suggestion? Click here.




ElementValue
Catalog49056
NameEUTELSAT QUANTUM
Epoch Orbit62
Epoch Day268.69637691
Epoch Year2021
RAAN178.8352
Inclination0.0116
Eccentricity0.0002302
Argument of Perigee65.3604
Mean Anonmoly58.9334
Mean Motion1.00272784
Decay Rate1.23E-06
L11 49056U 21069B 21268.69637691 .00000123 00000-0 00000-0 0 9994
L22 49056 0.0116 178.8352 0002302 65.3604 58.9334 1.00272784 620

Live tracking and technical data element details for EUTELSAT QUANTUM (NORAD 49056). EUTELSAT QUANTUM can be tracked NOW for your location showing map with azimuth and elevation plus other details from your city location.

Track the satellite on the map from your city or location and see movement details for azimuth, elevation, latitude, longitude, range, height, and movement on the map or in text.







IsCatalogInMostPopularTable: catalog: 49056, numindb: 15
Update: records affected: 1



GetName: 49056 EUTELSAT QUANTUM

Hit Count: updated at: Sun, 26 Sep 2021 15:54:37 GMT